Port Angeles, WA
on Thursday, November 15, 2012

Thursday
Previous Day Next Day
Daily Summary
 ActualAverageRecord
Temperature
Mean Temperature °F °F  
Max Temperature 45°F 49°F 57°F (1965)
Min Temperature 35°F 38°F 12°F (1955)
Degree Days
Heating Degree Days 25    
Moisture
Dew Point 40°F   
Average Humidity 89    
Maximum Humidity 97    
Minimum Humidity 82    
Precipitation
Precipitation 0.00 in in in ()
Wind
Wind Speed 3 mph   
Max Wind Speed 7 mph   
Max Gust Speed mph   
Visibility 10 miles   
Events Rain   
Averages and records for this station are not official NWS values.
Key: T is trace of precipitation, MM is missing value
Source: NWS Daily Summary
Seasonal Weather Averages
Time(PST)TemperatureDew PointHumidity Pressure Visibility Wind DirectionWind SpeedGust SpeedPrecipitationEvents Conditions
12:35 AM 43.0°F 42.1°F 97% 30.28 in 10.0 miles South 4.6 mph - N/A   Overcast
12:53 AM 43.0°F 42.1°F 97% 30.28 in 10.0 miles ESE 3.5 mph - N/A   Overcast
1:16 AM 44.1°F 42.1°F 93% 30.27 in 10.0 miles ESE 3.5 mph - N/A   Overcast
1:53 AM 44.1°F 42.1°F 93% 30.26 in 10.0 miles SE 4.6 mph - N/A   Overcast
2:45 AM 44.1°F 42.1°F 93% 30.25 in 10.0 miles East 3.5 mph - N/A   Overcast
2:53 AM 44.1°F 41.0°F 89% 30.25 in 10.0 miles SE 4.6 mph - N/A   Overcast
3:03 AM 44.1°F 41.0°F 89% 30.24 in 10.0 miles ESE 4.6 mph - N/A   Overcast
3:53 AM 44.1°F 41.0°F 89% 30.23 in 10.0 miles Calm Calm - N/A   Overcast
4:53 AM 42.1°F 39.9°F 92% 30.22 in 10.0 miles WSW 3.5 mph - N/A   Overcast
5:53 AM 42.1°F 39.9°F 92% 30.19 in 10.0 miles SW 3.5 mph - 0.00 in   Overcast
6:53 AM 42.1°F 39.9°F 92% 30.18 in 10.0 miles SW 3.5 mph - N/A   Overcast
7:50 AM 42.8°F 39.2°F 87% 30.16 in 10.0 miles SW 3.5 mph - 0.00 in Rain Light Rain
7:53 AM 42.1°F 39.0°F 89% 30.17 in 10.0 miles SW 4.6 mph - 0.00 in   Overcast
8:20 AM 42.1°F 39.0°F 89% 30.15 in 10.0 miles SW 3.5 mph - N/A   Overcast
8:33 AM 42.1°F 39.0°F 89% 30.15 in 10.0 miles SW 3.5 mph - N/A   Overcast
8:53 AM 43.0°F 39.0°F 86% 30.15 in 10.0 miles Calm Calm - N/A   Overcast
9:53 AM 43.0°F 41.0°F 93% 30.13 in 10.0 miles South 3.5 mph - 0.00 in   Overcast
10:10 AM 45.0°F 42.1°F 90% 30.12 in 10.0 miles SE 4.6 mph - N/A   Overcast
10:24 AM 45.0°F 42.1°F 90% 30.11 in 10.0 miles ESE 4.6 mph - N/A   Overcast
10:53 AM 45.0°F 42.1°F 90% 30.11 in 10.0 miles ENE 5.8 mph - N/A   Overcast
11:53 AM 45.0°F 41.0°F 86% 30.08 in 10.0 miles Variable 6.9 mph - N/A   Overcast
12:53 PM 44.1°F 41.0°F 89% 30.06 in 10.0 miles NNE 4.6 mph - N/A   Overcast
1:53 PM 45.0°F 39.9°F 82% 30.05 in 10.0 miles Calm Calm - N/A   Overcast
2:15 PM 45.0°F 39.9°F 82% 30.04 in 10.0 miles ENE 4.6 mph - N/A   Overcast
2:53 PM 45.0°F 39.9°F 82% 30.03 in 10.0 miles Calm Calm - N/A   Overcast
3:33 PM 45.0°F 39.9°F 82% 30.02 in 10.0 miles Calm Calm - N/A   Overcast
3:53 PM 45.0°F 39.9°F 82% 30.02 in 10.0 miles Calm Calm - N/A   Overcast
4:15 PM 45.0°F 39.9°F 82% 30.00 in 10.0 miles Calm Calm - N/A   Overcast
4:53 PM 45.0°F 39.9°F 82% 30.00 in 10.0 miles Calm Calm - N/A   Overcast
5:53 PM 44.1°F 39.0°F 82% 29.99 in 10.0 miles South 3.5 mph - N/A   Overcast
6:53 PM 43.0°F 39.0°F 86% 29.97 in 10.0 miles SSE 3.5 mph - N/A   Overcast
7:15 PM 42.1°F 39.0°F 89% 29.96 in 10.0 miles Calm Calm - N/A   Scattered Clouds
7:53 PM 39.9°F 37.9°F 93% 29.96 in 10.0 miles SSE 3.5 mph - N/A   Clear
8:53 PM 37.9°F 37.0°F 97% 29.96 in 9.0 miles South 3.5 mph - N/A   Partly Cloudy
9:53 PM 35.1°F 33.1°F 92% 29.95 in 6.0 miles Calm Calm - N/A   Mostly Cloudy
10:53 PM 35.1°F 34.0°F 96% 29.94 in 8.0 miles Calm Calm - N/A   Overcast
11:53 PM 37.0°F 35.1°F 93% 29.94 in 10.0 miles SW 6.9 mph - N/A   Overcast
Moon Phase
Nov. 15 Nov. 20 Nov. 28 Dec. 06 Dec. 13
Sunrise:07:21 AM (PST) Moon Rise:09:28 AM (PST)11/15
Sunset:04:35 PM (PST) Moon Set:06:27 PM (PST)11/15

Copyright © 2014 The Weather Underground, Inc.